Starlink 31292

operational
NORAD ID: 59081 Int'l Des: 2024-041 Owner: SPXS Country: US Constellation: starlink
LEOCIRCULAR

Über Starlink 31292

Beschreibung wird geladen...

Live-Position

3D-Globus wird geladen...

Nächste Überflüge

Höhenverlauf

Altitude vs Time

uPlot chart will show altitude changes over time

Zweizeiliger Elementsatz

1 59081U 24041H 25351.55826818 .00000681 00000-0 34263-4 0 9990
2 59081 43.0026 54.2798 0001603 285.3405 74.7270 15.27590760101700
Epoch: 17. Dez. 2025 • Age: 19 hours

Aktueller Status

Höhe 482.8 km
Geschwindigkeit 7.63 km/s
Subsatellitenpunkt -3.49°S, 164.19°W
Startdatum 29. Feb. 2024
Alter 1.7 years
Typ internet

Technische Details

Klassifizierung Payload
Masse 730.00 kg
Trockenmasse 700.00 kg
Gesamtmasse 730.00 kg
Länge 0.30 m
Durchmesser 4.10 m
Spannweite 29.00 m
Form Box + pan
Hersteller SPXS
Bus-Typ Starlink V2M
Phasenstatus In Orbit
Besitzer/Staat SPXS/US

Große Konstellationen

Loading constellations...